Time,TemperatureF,DewpointF,PressureIn,WindDirection,WindDirectionDegrees,WindSpeedMPH,WindSpeedGustMPH,Humidity,HourlyPrecipIn,Conditions,Clouds,dailyrainin,SoftwareType,DateUTC
2013-01-04 00:28:00,26.5,20.6,26.83,SSW,196,0.0,0.0,78,0.00,,,-99.99,VWS V12.07,2013-01-04 05:28:00,
2013-01-04 00:57:00,26.0,20.4,26.84,SW,221,0.0,0.0,79,0.00,,,-99.99,VWS V12.07,2013-01-04 05:57:00,
2013-01-04 01:28:00,25.9,20.6,26.84,WSW,241,0.0,0.0,80,0.00,,,-99.99,VWS V12.07,2013-01-04 06:28:00,
2013-01-04 01:57:00,25.1,20.4,26.85,SW,219,0.0,0.0,82,0.00,,,-99.99,VWS V12.07,2013-01-04 06:57:00,
2013-01-04 02:27:00,25.0,20.6,26.84,SW,215,0.0,0.0,83,0.00,,,-99.99,VWS V12.07,2013-01-04 07:27:00,
2013-01-04 02:57:00,25.1,20.4,26.83,SW,236,0.0,0.0,82,0.00,,,-99.99,VWS V12.07,2013-01-04 07:57:00,
2013-01-04 03:27:00,25.0,20.3,26.83,SW,231,0.0,0.0,82,0.00,,,-99.99,VWS V12.07,2013-01-04 08:27:00,
2013-01-04 03:57:00,24.8,19.8,26.83,SW,224,0.0,0.0,81,0.00,,,-99.99,VWS V12.07,2013-01-04 08:57:00,
2013-01-04 04:27:00,24.5,19.2,26.83,SSW,209,0.0,0.0,80,0.00,,,-99.99,VWS V12.07,2013-01-04 09:27:00,
2013-01-04 04:58:00,24.5,18.3,26.83,WSW,241,0.0,0.0,77,0.00,,,-99.99,VWS V12.07,2013-01-04 09:58:00,
2013-01-04 10:57:00,30.7,20.0,26.89,SSW,195,0.0,0.0,64,0.00,,,-99.99,VWS V12.07,2013-01-04 15:57:00,
2013-01-04 11:27:00,31.7,19.8,26.89,WSW,252,0.0,0.0,61,0.00,,,-99.99,VWS V12.07,2013-01-04 16:27:00,
2013-01-04 11:58:00,32.5,20.2,26.87,SW,233,0.0,0.0,60,0.00,,,-99.99,VWS V12.07,2013-01-04 16:58:00,
2013-01-04 12:27:00,33.5,19.9,26.86,SW,217,0.0,0.0,57,0.00,,,-99.99,VWS V12.07,2013-01-04 17:27:00,
2013-01-04 12:57:00,34.4,19.9,26.85,SW,232,0.0,0.0,55,0.00,,,-99.99,VWS V12.07,2013-01-04 17:57:00,
2013-01-04 13:28:00,34.4,19.5,26.83,SW,232,0.0,0.0,54,0.00,,,-99.99,VWS V12.07,2013-01-04 18:28:00,
2013-01-04 13:57:00,35.2,20.2,26.84,South,186,0.0,0.0,54,0.00,,,-99.99,VWS V12.07,2013-01-04 18:57:00,
2013-01-04 14:27:00,35.8,21.6,26.84,SW,219,0.0,0.0,56,0.00,,,-99.99,VWS V12.07,2013-01-04 19:27:00,
2013-01-04 14:57:00,33.7,20.1,26.84,West,275,0.0,0.0,57,0.00,,,-99.99,VWS V12.07,2013-01-04 19:57:00,
2013-01-04 15:27:00,31.2,20.5,26.84,SW,226,0.0,0.0,64,0.00,,,-99.99,VWS V12.07,2013-01-04 20:27:00,
2013-01-04 15:57:00,31.4,22.1,26.85,SW,223,0.0,0.0,68,0.00,,,-99.99,VWS V12.07,2013-01-04 20:57:00,
2013-01-04 16:27:00,30.8,21.1,26.86,SSW,210,0.0,0.0,67,0.00,,,-99.99,VWS V12.07,2013-01-04 21:27:00,
2013-01-04 16:57:00,28.8,19.9,26.85,South,189,0.0,0.0,69,0.00,,,-99.99,VWS V12.07,2013-01-04 21:57:00,
2013-01-04 17:27:00,27.5,19.7,26.86,WNW,291,0.0,0.0,72,0.00,,,-99.99,VWS V12.07,2013-01-04 22:27:00,
2013-01-04 17:57:00,26.9,20.0,26.88,WSW,248,0.0,0.0,75,0.00,,,-99.99,VWS V12.07,2013-01-04 22:57:00,
2013-01-04 18:27:00,26.6,20.4,26.90,WSW,239,0.0,0.0,77,0.00,,,-99.99,VWS V12.07,2013-01-04 23:27:00,
2013-01-04 18:57:00,26.2,20.0,26.89,SSW,210,0.0,0.0,77,0.00,,,-99.99,VWS V12.07,2013-01-04 23:57:00,
2013-01-04 19:27:00,25.6,20.3,26.90,SSW,207,0.0,0.0,80,0.00,,,-99.99,VWS V12.07,2013-01-05 00:27:00,
2013-01-04 19:58:00,25.3,20.0,26.89,SSW,200,0.0,0.0,80,0.00,,,-99.99,VWS V12.07,2013-01-05 00:58:00,
2013-01-04 20:27:00,25.1,20.1,26.89,South,187,0.0,0.0,81,0.00,,,-99.99,VWS V12.07,2013-01-05 01:27:00,
2013-01-04 20:58:00,25.2,19.9,26.89,SW,217,0.0,0.0,80,0.00,,,-99.99,VWS V12.07,2013-01-05 01:58:00,
2013-01-04 21:27:00,25.1,19.5,26.90,SSW,206,0.0,0.0,79,0.00,,,-99.99,VWS V12.07,2013-01-05 02:27:00,
2013-01-04 21:57:00,24.7,19.4,26.90,WNW,287,0.0,0.0,80,0.00,,,-99.99,VWS V12.07,2013-01-05 02:57:00,
2013-01-04 22:27:00,24.4,19.4,26.89,SW,230,0.0,0.0,81,0.00,,,-99.99,VWS V12.07,2013-01-05 03:27:00,
2013-01-04 22:58:00,24.1,19.4,26.88,WSW,239,0.0,0.0,82,0.00,,,-99.99,VWS V12.07,2013-01-05 03:58:00,
2013-01-04 23:27:00,23.8,19.7,26.90,SSW,213,0.0,0.0,84,0.00,,,-99.99,VWS V12.07,2013-01-05 04:27:00,
2013-01-04 23:58:00,23.9,18.9,26.89,SW,223,0.0,0.0,81,0.00,,,-99.99,VWS V12.07,2013-01-05 04:58:00,